Change the Weather History Date:

Wednesday, May 15, 2013

  Actual Average Record
Temperature  
Mean Temperature 74 °F -  
Max Temperature 84 °F 80 °F 94 °F (1944)
Min Temperature 64 °F 55 °F 42 °F (1971)
Cooling Degree Days 9    
Growing Degree Days 24 (Base 50)    
Moisture  
Dew Point 53 °F    
Average Humidity 49    
Maximum Humidity 83    
Minimum Humidity 30    
Precipitation  
Precipitation 0.00 in - - ()
Sea Level Pressure  
Sea Level Pressure 30.07 in    
Wind  
Wind Speed 8 mph (SW)    
Max Wind Speed 14 mph    
Max Gust Speed 23 mph    
Visibility 10 miles    
Events      
Averages and records for this station are not official NWS values.
T = Trace of Precipitation, MM = Missing Value Source: NWS Daily Summary

Daily Weather History Graph

Daily Weather History Graph

Search for Another Location

Airport or City:

Trip Planner

Search our weather history database for the weather conditions in past years. The results will help you decide how hot, cold, wet, or windy it might be!

Date:

Astronomy

May. 15, 2013 Rise Set
Actual Time 5:50 AM CDT 7:51 PM CDT
Civil Twilight 5:22 AM CDT 8:19 PM CDT
Nautical Twilight 4:48 AM CDT 8:53 PM CDT
Astronomical Twilight 4:12 AM CDT 9:30 PM CDT
Moon 10:24 AM CDT (5/15) No Moon Set
Length of Visible Light 14h 56m
Length of Day
14h 00m
Waxing Crescent, 27% of the Moon is Illuminated
May 15
Waxing Crescent
May 17
First Quarter
May 24
Full
May 31
Last Quarter
Jun 8
New

Hourly Weather History & Observations

Time (CDT) Temp. Heat Index Dew Point Humidity Pressure Visibility Wind Dir Wind Speed Gust Speed Precip Events Conditions
12:15 AM 69.8 °F - 50.0 °F 49% 30.08 in 10.0 mi SSW 9.2 mph - N/A   Clear
12:30 AM 69.8 °F - 50.0 °F 49% 30.08 in 10.0 mi SSW 8.1 mph - N/A   Clear
12:55 AM 69.8 °F - 50.0 °F 49% 30.08 in 10.0 mi SSW 9.2 mph - N/A   Clear
1:15 AM 68.0 °F - 51.8 °F 56% 30.08 in 10.0 mi SSW 5.8 mph - N/A   Clear
1:35 AM 69.8 °F - 51.8 °F 53% 30.08 in 10.0 mi SW 8.1 mph - N/A   Clear
1:55 AM 69.8 °F - 53.6 °F 56% 30.08 in 10.0 mi SW 10.4 mph - N/A   Clear
2:10 AM 69.8 °F - 53.6 °F 56% 30.08 in 10.0 mi SW 9.2 mph - N/A   Clear
2:35 AM 68.0 °F - 53.6 °F 60% 30.08 in 10.0 mi SW 10.4 mph 16.1 mph N/A   Clear
2:55 AM 68.0 °F - 53.6 °F 60% 30.08 in 10.0 mi SW 6.9 mph - N/A   Clear
3:15 AM 68.0 °F - 53.6 °F 60% 30.08 in 10.0 mi SW 5.8 mph - N/A   Clear
3:35 AM 68.0 °F - 53.6 °F 60% 30.09 in 10.0 mi SW 9.2 mph - N/A   Clear
3:55 AM 68.0 °F - 53.6 °F 60% 30.09 in 10.0 mi WSW 8.1 mph - N/A   Clear
4:15 AM 68.0 °F - 53.6 °F 60% 30.09 in 10.0 mi WSW 5.8 mph - N/A   Clear
4:35 AM 66.2 °F - 53.6 °F 64% 30.10 in 10.0 mi WSW 6.9 mph - N/A   Clear
4:55 AM 66.2 °F - 53.6 °F 64% 30.10 in 10.0 mi WSW 4.6 mph - N/A   Clear
5:15 AM 66.2 °F - 53.6 °F 64% 30.10 in 10.0 mi WSW 5.8 mph - N/A   Clear
5:35 AM 64.4 °F - 53.6 °F 68% 30.10 in 10.0 mi WSW 4.6 mph - N/A   Clear
5:55 AM 64.4 °F - 53.6 °F 68% 30.11 in 10.0 mi SW 3.5 mph - N/A   Clear
6:15 AM 64.4 °F - 53.6 °F 68% 30.12 in 10.0 mi SW 4.6 mph - N/A   Clear
6:35 AM 64.4 °F - 53.6 °F 68% 30.12 in 10.0 mi SW 5.8 mph - N/A   Clear
6:50 AM 66.2 °F - 53.6 °F 64% 30.12 in 10.0 mi SW 5.8 mph - N/A   Clear
7:10 AM 66.2 °F - 53.6 °F 64% 30.12 in 10.0 mi SSW 4.6 mph - N/A   Clear
7:35 AM 68.0 °F - 53.6 °F 60% 30.13 in 10.0 mi SW 4.6 mph - N/A   Clear
7:50 AM 68.0 °F - 53.6 °F 60% 30.13 in 10.0 mi WSW 6.9 mph - N/A   Clear
8:10 AM 69.8 °F - 53.6 °F 56% 30.14 in 10.0 mi SW 8.1 mph - N/A   Clear
8:30 AM 71.6 °F - 51.8 °F 50% 30.14 in 10.0 mi WSW 8.1 mph - N/A   Clear
8:55 AM 71.6 °F - 51.8 °F 50% 30.15 in 10.0 mi WSW 5.8 mph - N/A   Clear
9:10 AM 73.4 °F - 51.8 °F 47% 30.15 in 10.0 mi WSW 10.4 mph - N/A   Clear
9:35 AM 73.4 °F - 51.8 °F 47% 30.14 in 10.0 mi West 6.9 mph - N/A   Clear
9:55 AM 75.2 °F - 50.0 °F 41% 30.14 in 10.0 mi WSW 10.4 mph - N/A   Clear
10:15 AM 75.2 °F - 50.0 °F 41% 30.14 in 10.0 mi WSW 13.8 mph 18.4 mph N/A   Clear
10:35 AM 77.0 °F - 48.2 °F 36% 30.14 in 10.0 mi West 11.5 mph - N/A   Clear
10:55 AM 77.0 °F - 51.8 °F 41% 30.14 in 10.0 mi SW 10.4 mph 17.3 mph N/A   Clear
11:15 AM 77.0 °F - 50.0 °F 39% 30.14 in 10.0 mi WSW 10.4 mph - N/A   Clear
11:30 AM 77.0 °F - 50.0 °F 39% 30.13 in 10.0 mi SW 9.2 mph - N/A   Clear
11:55 AM 80.6 °F - 50.0 °F 34% 30.12 in 10.0 mi SW 9.2 mph 17.3 mph N/A   Clear
12:15 PM 80.6 °F - 50.0 °F 34% 30.11 in 10.0 mi SW 9.2 mph 16.1 mph N/A   Clear
12:35 PM 80.6 °F - 50.0 °F 34% 30.11 in 10.0 mi WSW 9.2 mph - N/A   Clear
12:50 PM 80.6 °F - 51.8 °F 37% 30.10 in 10.0 mi South 6.9 mph - N/A   Clear
1:10 PM 82.4 °F - 51.8 °F 35% 30.10 in 10.0 mi SW 10.4 mph 17.3 mph N/A   Clear
1:30 PM 82.4 °F - 50.0 °F 32% 30.09 in 10.0 mi WSW 12.7 mph 17.3 mph N/A   Clear
1:50 PM 82.4 °F - 50.0 °F 32% 30.08 in 10.0 mi WSW 11.5 mph - N/A   Clear
2:10 PM 82.4 °F 81.4 °F 53.6 °F 37% 30.07 in 10.0 mi West 9.2 mph - N/A   Clear
2:30 PM 84.2 °F - 51.8 °F 33% 30.06 in 10.0 mi WSW 11.5 mph 21.9 mph N/A   Clear
2:50 PM 84.2 °F - 51.8 °F 33% 30.05 in 10.0 mi SSW 11.5 mph 19.6 mph N/A   Clear
3:10 PM 84.2 °F - 51.8 °F 33% 30.04 in 10.0 mi South 10.4 mph - N/A   Clear
3:30 PM 84.2 °F - 50.0 °F 30% 30.03 in 10.0 mi SW 11.5 mph 19.6 mph N/A   Clear
3:50 PM 82.4 °F - 50.0 °F 32% 30.03 in 10.0 mi WSW 11.5 mph 18.4 mph N/A   Clear
4:30 PM 84.2 °F - 51.8 °F 33% 30.01 in 10.0 mi SSW 12.7 mph 17.3 mph N/A   Clear
4:50 PM 82.4 °F 81.4 °F 53.6 °F 37% 30.01 in 10.0 mi South 12.7 mph 17.3 mph N/A   Clear
5:10 PM 82.4 °F 81.4 °F 53.6 °F 37% 30.00 in 10.0 mi SSW 13.8 mph 19.6 mph N/A   Clear
5:30 PM 82.4 °F 81.4 °F 53.6 °F 37% 30.00 in 10.0 mi SSW 12.7 mph 23.0 mph N/A   Clear
5:55 PM 82.4 °F - 51.8 °F 35% 30.00 in 10.0 mi SSW 12.7 mph - N/A   Clear
6:10 PM 80.6 °F - 51.8 °F 37% 30.00 in 10.0 mi SSW 12.7 mph - N/A   Clear
6:30 PM 80.6 °F 80.3 °F 53.6 °F 39% 29.99 in 10.0 mi SSW 6.9 mph - N/A   Clear
6:50 PM 80.6 °F 80.3 °F 53.6 °F 39% 29.99 in 10.0 mi SSW 5.8 mph - N/A   Clear
7:10 PM 77.0 °F - 53.6 °F 44% 30.00 in 10.0 mi SSW 5.8 mph - N/A   Clear
7:30 PM 77.0 °F - 53.6 °F 44% 30.00 in 10.0 mi SSW 4.6 mph - N/A   Clear
7:55 PM 75.2 °F - 53.6 °F 47% 30.00 in 10.0 mi SSW 5.8 mph - N/A   Clear
8:10 PM 75.2 °F - 53.6 °F 47% 30.00 in 10.0 mi SSW 5.8 mph - N/A   Clear
8:35 PM 73.4 °F - 53.6 °F 50% 30.01 in 10.0 mi SSW 5.8 mph - N/A   Clear
8:50 PM 73.4 °F - 55.4 °F 53% 30.01 in 10.0 mi SSW 5.8 mph - N/A   Clear
9:10 PM 73.4 °F - 55.4 °F 53% 30.01 in 10.0 mi SSW 5.8 mph - N/A   Clear
9:30 PM 73.4 °F - 53.6 °F 50% 30.02 in 10.0 mi SSW 5.8 mph - N/A   Clear
9:50 PM 71.6 °F - 55.4 °F 57% 30.02 in 10.0 mi South 4.6 mph - N/A   Clear
10:10 PM 71.6 °F - 55.4 °F 57% 30.02 in 10.0 mi South 3.5 mph - N/A   Clear
10:30 PM 71.6 °F - 55.4 °F 57% 30.01 in 10.0 mi South 3.5 mph - N/A   Clear
10:50 PM 68.0 °F - 55.4 °F 64% 30.01 in 10.0 mi Calm Calm - N/A   Clear
11:10 PM 68.0 °F - 57.2 °F 68% 30.01 in 10.0 mi SSE 3.5 mph - N/A   Clear
11:30 PM 66.2 °F - 60.8 °F 83% 30.01 in 10.0 mi SSE 3.5 mph - N/A   Clear
11:50 PM 66.2 °F - 57.2 °F 73% 30.01 in 10.0 mi Calm Calm - N/A   Clear